Regional Weather Roundup
Issued by NWS Albany, NY

Home | Current Version | Previous Version | Graphics & Text | Print | Product List | Glossary On
Versions: 1 2 3 4 5 6 7 8 9 10 11 12 13 14 15 16 17 18 19 20 21 22 23 24 25 26 27
000
ASUS41 KALY 181110
RWRALY

NEW YORK STATE HOURLY WEATHER ROUNDUP
NATIONAL WEATHER SERVICE ALBANY NY
700 AM EDT FRI AUG 18 2017

NOTE: "FAIR" INDICATES FEW OR NO CLOUDS BELOW 12,000 FEET WITH NO
SIGNIFICANT WEATHER AND/OR NO OBSTRUCTIONS TO VISIBILITY.

NYZ032-033-038>043-046>054-057>066-NYZ062>081-082-084-181200-
EAST


CITY           SKY/WX    TMP DP  RH WIND       PRES   REMARKS
ALBANY         LGT RAIN  71  67  87 S12G18    29.83S FOG
GLENS FALLS    LGT RAIN  62  60  93 CALM      29.84R FOG
POUGHKEEPSIE   CLOUDY    74  69  85 S5        29.87S
NEWBURGH       LGT RAIN  73  70  88 CALM      29.90S
MONTGOMERY     LGT RAIN  72  70  93 SW3       29.88S FOG
WHITE PLAINS   LGT RAIN  74  71  91 SE7       29.90F
ISLIP          CLOUDY    75  72  90 S9        29.92S
NEW YORK CITY  CLOUDY    77  73  87 S10       29.89R
CENTRAL PARK   CLOUDY    76  69  79 VRB3      29.92S
$$

NYZ005>009-017-018-044>046-055-056-181200-
CENTRAL


CITY           SKY/WX    TMP DP  RH WIND       PRES   REMARKS
FULTON         MOCLDY    74  71  91 S6        29.76R FOG
SYRACUSE       CLOUDY    75  72  90 CALM      29.76R
ROME           CLOUDY    70  69  97 E5        29.79R
ELMIRA         CLOUDY    76  71  85 SW6       29.80R
BINGHAMTON     CLOUDY    70  70 100 SW6       29.86R FOG
MONTICELLO     CLOUDY    69  68  96 S6        29.92S FOG
$$

NYZ026>034-041>043-087-181200-
NORTH


CITY           SKY/WX    TMP DP  RH WIND       PRES   REMARKS
WATERTOWN      CLOUDY    73  72  96 SW9G21    29.73R FOG
FORT DRUM      NOT AVBL
OGDENSBURG     CLOUDY    68  67  96 CALM      29.73R FOG
MASSENA        CLOUDY    64  64 100 NE5       29.75S
SARANAC LAKE     N/A     64  64 100 W3        29.80
PLATTSBURGH    HVY RAIN  63  60  90 SE9       29.80F FOG
$$

NYZ001>004-010>016-019>021-085-181200-
WEST


CITY           SKY/WX    TMP DP  RH WIND       PRES   REMARKS
NIAGARA FALLS  PTCLDY    75  69  81 SW15      29.74R
BUFFALO        MOCLDY    74  70  87 SW12G24   29.75R
DUNKIRK        CLEAR     71  69  93 S9        29.78R
JAMESTOWN      CLOUDY    69  68  96 SW7       29.85R
WELLSVILLE     PTCLDY    71  67  87 SW7       29.88R
ROCHESTER      MOCLDY    73  70  90 SW7       29.76R
PENN YAN       LGT RAIN  73  69  87 S5        29.80S
$$

             KEY
       WCI = WIND CHILL INDEX
       VSB = VISIBILITY
       HX  = HEAT INDEX
$$




USA.gov is the U.S. government's official web portal to all federal, state and local government web resources and services.